Year,Month,Day,Hour,Minute,Value (Times are PST for barometer in hPa)
2023,01,04,00,00,1004.71
2023,01,04,00,01,1004.71
2023,01,04,00,02,1004.71
2023,01,04,00,03,1004.71
2023,01,04,00,04,1004.71
2023,01,04,00,05,1004.71
2023,01,04,00,06,1002.46
2023,01,04,00,07,995.70
2023,01,04,00,08,996.11
2023,01,04,00,09,997.33
2023,01,04,00,10,997.33
2023,01,04,00,11,997.33
2023,01,04,00,12,997.33
2023,01,04,00,13,997.33
2023,01,04,00,14,997.33
2023,01,04,00,15,997.33
2023,01,04,00,16,997.33
2023,01,04,00,17,996.85
2023,01,04,00,18,995.47
2023,01,04,00,19,995.40
2023,01,04,00,20,995.89
2023,01,04,00,21,997.36
2023,01,04,00,22,997.36
2023,01,04,00,23,997.36
2023,01,04,00,24,997.36
2023,01,04,00,25,997.36
2023,01,04,00,26,997.36
2023,01,04,00,27,997.36
2023,01,04,00,28,998.51
2023,01,04,00,29,1001.97
2023,01,04,00,30,1001.97
2023,01,04,00,31,1001.97
2023,01,04,00,32,999.93
2023,01,04,00,33,994.21
2023,01,04,00,34,994.21
2023,01,04,00,35,994.21
2023,01,04,00,36,994.21
2023,01,04,00,37,994.21
2023,01,04,00,38,994.21
2023,01,04,00,39,994.21
2023,01,04,00,40,994.21
2023,01,04,00,41,994.40
2023,01,04,00,42,995.09
2023,01,04,00,43,995.09
2023,01,04,00,44,995.09
2023,01,04,00,45,995.09
2023,01,04,00,46,995.09
2023,01,04,00,47,995.09
2023,01,04,00,48,995.09
2023,01,04,00,49,995.09
2023,01,04,00,50,995.48
2023,01,04,00,51,996.65
2023,01,04,00,52,996.65
2023,01,04,00,53,996.65
2023,01,04,00,54,996.65
2023,01,04,00,55,996.65
2023,01,04,00,56,996.65
2023,01,04,00,57,996.65
2023,01,04,00,58,996.65
2023,01,04,00,59,997.25
2023,01,04,01,00,999.66
2023,01,04,01,01,999.66
2023,01,04,01,02,999.66
2023,01,04,01,03,999.66
2023,01,04,01,04,999.66
2023,01,04,01,05,999.66
2023,01,04,01,06,999.64
2023,01,04,01,07,999.59
2023,01,04,01,08,999.59
2023,01,04,01,09,999.59
2023,01,04,01,10,999.59
2023,01,04,01,11,999.59
2023,01,04,01,12,999.59
2023,01,04,01,13,998.44
2023,01,04,01,14,994.99
2023,01,04,01,15,994.99
2023,01,04,01,16,994.99
2023,01,04,01,17,994.99
2023,01,04,01,18,994.99
2023,01,04,01,19,994.99
2023,01,04,01,20,994.99
2023,01,04,01,21,994.99
2023,01,04,01,22,994.88
2023,01,04,01,23,994.62
2023,01,04,01,24,994.62
2023,01,04,01,25,994.62
2023,01,04,01,26,994.42
2023,01,04,01,27,993.91
2023,01,04,01,28,993.91
2023,01,04,01,29,993.91
2023,01,04,01,30,994.46
2023,01,04,01,31,996.11
2023,01,04,01,32,996.11
2023,01,04,01,33,996.09
2023,01,04,01,34,996.01
2023,01,04,01,35,995.61
2023,01,04,01,36,994.41
2023,01,04,01,37,994.41
2023,01,04,01,38,994.41
2023,01,04,01,39,994.41
2023,01,04,01,40,994.41
2023,01,04,01,41,994.41
2023,01,04,01,42,995.72
2023,01,04,01,43,1000.95
2023,01,04,01,44,1000.95
2023,01,04,01,45,1000.95
2023,01,04,01,46,1000.95
2023,01,04,01,47,1000.95
2023,01,04,01,48,1000.95
2023,01,04,01,49,1000.95
2023,01,04,01,50,1000.95
2023,01,04,01,51,1000.95
2023,01,04,01,52,1000.51
2023,01,04,01,53,999.19
2023,01,04,01,54,999.19
2023,01,04,01,55,999.19
2023,01,04,01,56,999.19
2023,01,04,01,57,999.19
2023,01,04,01,58,999.19
2023,01,04,01,59,999.19
2023,01,04,02,00,999.19
2023,01,04,02,01,999.19
2023,01,04,02,02,999.19
2023,01,04,02,03,999.19
2023,01,04,02,04,1002.23
2023,01,04,02,05,1011.33
2023,01,04,02,06,1011.28
2023,01,04,02,07,1011.28
2023,01,04,02,08,1011.29
2023,01,04,02,09,1011.36
2023,01,04,02,10,1011.37
2023,01,04,02,11,1011.36
2023,01,04,02,12,1011.40
2023,01,04,02,13,1011.39
2023,01,04,02,14,1011.41
2023,01,04,02,15,1011.40
2023,01,04,02,16,1011.39
2023,01,04,02,17,1011.40
2023,01,04,02,18,1011.38
2023,01,04,02,19,1011.39
2023,01,04,02,20,1011.42
2023,01,04,02,21,1011.46
2023,01,04,02,22,1011.46
2023,01,04,02,23,1011.40
2023,01,04,02,24,1011.32
2023,01,04,02,25,1011.17
2023,01,04,02,26,1011.07
2023,01,04,02,27,1011.12
2023,01,04,02,28,1011.02
2023,01,04,02,29,1011.09
2023,01,04,02,30,1011.45
2023,01,04,02,31,1011.03
2023,01,04,02,32,1009.75
2023,01,04,02,33,1009.64
2023,01,04,02,34,1009.18
2023,01,04,02,35,1009.18
2023,01,04,02,36,1009.04
2023,01,04,02,37,1008.64
2023,01,04,02,38,1008.95
2023,01,04,02,39,1009.89
2023,01,04,02,40,1010.11
2023,01,04,02,41,1010.89
2023,01,04,02,42,1011.20
2023,01,04,02,43,1011.03
2023,01,04,02,44,1011.02
2023,01,04,02,45,1011.11
2023,01,04,02,46,1011.21
2023,01,04,02,47,1011.13
2023,01,04,02,48,1011.19
2023,01,04,02,49,1011.12
2023,01,04,02,50,1011.16
2023,01,04,02,51,1011.26
2023,01,04,02,52,1011.35
2023,01,04,02,53,1011.04
2023,01,04,02,54,1010.05
2023,01,04,02,55,1009.61
2023,01,04,02,56,1009.22
2023,01,04,02,57,1009.40
2023,01,04,02,58,1009.57
2023,01,04,02,59,1009.84
2023,01,04,03,00,1009.65
2023,01,04,03,01,1010.20
2023,01,04,03,02,1010.38
2023,01,04,03,06,1010.51
2023,01,04,03,07,1010.83
2023,01,04,03,08,1011.31
2023,01,04,03,09,1011.40
2023,01,04,03,10,1011.28
2023,01,04,03,11,1011.13
2023,01,04,03,12,1011.06
2023,01,04,03,13,1010.95
2023,01,04,03,14,1010.74
2023,01,04,03,15,1011.02
2023,01,04,03,16,1010.94
2023,01,04,03,17,1010.36
2023,01,04,03,18,1009.92
2023,01,04,03,19,1009.92
2023,01,04,03,20,1009.92
2023,01,04,03,21,1009.92
2023,01,04,03,22,1009.92
2023,01,04,03,23,1009.92
2023,01,04,03,24,1010.38
2023,01,04,03,25,1011.10
2023,01,04,03,26,1011.15
2023,01,04,03,27,1011.16
2023,01,04,03,28,1011.22
2023,01,04,03,29,1011.36
2023,01,04,03,30,1011.33
2023,01,04,03,31,1011.23
2023,01,04,03,32,1011.22
2023,01,04,03,33,1011.08
2023,01,04,03,34,1010.88
2023,01,04,03,35,1011.03
2023,01,04,03,36,1011.17
2023,01,04,03,37,1011.04
2023,01,04,03,38,1010.99
2023,01,04,03,39,1011.05
2023,01,04,03,40,1010.96
2023,01,04,03,41,1010.93
2023,01,04,03,42,1011.03
2023,01,04,03,43,1011.07
2023,01,04,03,44,1011.08
2023,01,04,03,45,1010.90
2023,01,04,03,46,1010.95
2023,01,04,03,47,1011.17
2023,01,04,03,48,1011.24
2023,01,04,03,49,1010.73
2023,01,04,03,50,1009.79
2023,01,04,03,51,1009.79
2023,01,04,03,52,1009.79
2023,01,04,03,53,1009.79
2023,01,04,03,54,1009.79
2023,01,04,03,55,1009.79
2023,01,04,03,56,1009.79
2023,01,04,03,57,1009.79
2023,01,04,03,58,1009.79
2023,01,04,03,59,1010.49
2023,01,04,04,00,1011.80
2023,01,04,04,01,1011.82
2023,01,04,04,02,1011.82
2023,01,04,04,03,1011.82
2023,01,04,04,04,1011.82
2023,01,04,04,05,1011.81
2023,01,04,04,06,1011.60
2023,01,04,04,07,1011.47
2023,01,04,04,08,1011.72
2023,01,04,04,09,1011.72
2023,01,04,04,10,1011.72
2023,01,04,04,11,1011.37
2023,01,04,04,12,1010.77
2023,01,04,04,13,1010.77
2023,01,04,04,14,1011.09
2023,01,04,04,15,1011.62
2023,01,04,04,16,1011.58
2023,01,04,04,17,1011.57
2023,01,04,04,18,1011.56
2023,01,04,04,19,1011.58
2023,01,04,04,20,1011.58
2023,01,04,04,21,1011.54
2023,01,04,04,22,1011.48
2023,01,04,04,23,1011.48
2023,01,04,04,24,1011.48
2023,01,04,04,25,1011.48
2023,01,04,04,26,1011.48
2023,01,04,04,27,1009.19
2023,01,04,04,28,1004.84
2023,01,04,04,29,1004.84
2023,01,04,04,30,1004.84
2023,01,04,04,31,1004.84
2023,01,04,04,32,1007.06
2023,01,04,04,33,1011.28
2023,01,04,04,34,1011.28
2023,01,04,04,35,1011.28
2023,01,04,04,36,1011.28
2023,01,04,04,37,1011.28
2023,01,04,04,38,1010.76
2023,01,04,04,39,1009.99
2023,01,04,04,40,1010.48
2023,01,04,04,41,1011.38
2023,01,04,04,42,1011.38
2023,01,04,04,43,1011.38
2023,01,04,04,44,1011.38
2023,01,04,04,45,1011.38
2023,01,04,04,46,1011.38
2023,01,04,04,47,1011.38
2023,01,04,04,48,1010.16
2023,01,04,04,49,1008.33
2023,01,04,04,50,1008.33
2023,01,04,04,51,1008.33
2023,01,04,04,52,1008.33
2023,01,04,04,53,1008.33
2023,01,04,04,54,1008.33
2023,01,04,04,55,1008.27
2023,01,04,04,56,1008.16
2023,01,04,04,57,1008.16
2023,01,04,04,58,1008.37
2023,01,04,04,59,1008.74
2023,01,04,05,00,1008.74
2023,01,04,05,01,1008.74
2023,01,04,05,02,1009.39
2023,01,04,05,03,1010.60
2023,01,04,05,04,1010.60
2023,01,04,05,05,1010.60
2023,01,04,05,06,1010.60
2023,01,04,05,07,1010.60
2023,01,04,05,08,1010.60
2023,01,04,05,09,1010.60
2023,01,04,05,10,1010.60
2023,01,04,05,11,1010.60
2023,01,04,05,12,1010.60
2023,01,04,05,13,1010.60
2023,01,04,05,14,1010.60
2023,01,04,05,15,1010.60
2023,01,04,05,16,1010.60
2023,01,04,05,17,1010.67
2023,01,04,05,18,1010.80
2023,01,04,05,19,1010.80
2023,01,04,05,20,1010.75
2023,01,04,05,21,1010.67
2023,01,04,05,22,1010.67
2023,01,04,05,23,1010.65
2023,01,04,05,24,1010.62
2023,01,04,05,25,1010.60
2023,01,04,05,26,1010.60
2023,01,04,05,27,1010.60
2023,01,04,05,28,1010.57
2023,01,04,05,29,1010.46
2023,01,04,05,30,1010.40
2023,01,04,05,31,1010.40
2023,01,04,05,32,1010.40
2023,01,04,05,33,1010.40
2023,01,04,05,34,1010.40
2023,01,04,05,35,1010.40
2023,01,04,05,36,1010.40
2023,01,04,05,37,1009.39
2023,01,04,05,38,1007.52
2023,01,04,05,39,1007.52
2023,01,04,05,40,1008.14
2023,01,04,05,41,1008.94
2023,01,04,05,42,1008.94
2023,01,04,05,43,1008.94
2023,01,04,05,44,1008.94
2023,01,04,05,45,1008.94
2023,01,04,05,46,1008.94
2023,01,04,05,47,1008.94
2023,01,04,05,48,1008.95
2023,01,04,05,49,1008.97
2023,01,04,05,50,1009.51
2023,01,04,05,51,1010.44
2023,01,04,05,52,1010.48
2023,01,04,05,53,1010.53
2023,01,04,05,54,1010.55
2023,01,04,05,55,1010.52
2023,01,04,05,56,1010.35
2023,01,04,05,57,1010.27
2023,01,04,05,58,1010.34
2023,01,04,05,59,1010.64
2023,01,04,06,00,1010.68
2023,01,04,06,01,1010.69
2023,01,04,06,02,1010.67
2023,01,04,06,03,1010.68
2023,01,04,06,04,1010.72
2023,01,04,06,05,1010.77
2023,01,04,06,06,1010.78
2023,01,04,06,07,1010.80
2023,01,04,06,08,1010.80
2023,01,04,06,09,1010.80
2023,01,04,06,10,1010.80
2023,01,04,06,11,1010.39
2023,01,04,06,12,1009.69
2023,01,04,06,13,1010.16
2023,01,04,06,14,1011.19
2023,01,04,06,15,1011.20
2023,01,04,06,16,1011.18
2023,01,04,06,17,1011.18
2023,01,04,06,18,1011.19
2023,01,04,06,19,1011.22
2023,01,04,06,20,1011.25
2023,01,04,06,21,1011.28
2023,01,04,06,22,1011.29
2023,01,04,06,23,1011.32
2023,01,04,06,24,1011.35
2023,01,04,06,25,1011.36
2023,01,04,06,26,1011.38
2023,01,04,06,27,1010.93
2023,01,04,06,28,1010.00
2023,01,04,06,29,1010.02
2023,01,04,06,30,1010.02
2023,01,04,06,31,1010.02
2023,01,04,06,32,1010.02
2023,01,04,06,33,1010.02
2023,01,04,06,34,1010.02
2023,01,04,06,35,1010.02
2023,01,04,06,36,1010.02
2023,01,04,06,37,1010.02
2023,01,04,06,38,1010.02
2023,01,04,06,39,1010.02
2023,01,04,06,40,1010.02
2023,01,04,06,41,1010.02
2023,01,04,06,42,1010.02
2023,01,04,06,43,1010.02
2023,01,04,06,44,1010.02
2023,01,04,06,45,1010.02
2023,01,04,06,46,1010.02
2023,01,04,06,47,1010.02
2023,01,04,06,48,1010.02
2023,01,04,06,49,1010.02
2023,01,04,06,50,1010.02
2023,01,04,06,51,1010.51
2023,01,04,06,52,1011.35
2023,01,04,06,53,1011.16
2023,01,04,06,54,1011.01
2023,01,04,06,55,1011.01
2023,01,04,06,56,1011.11
2023,01,04,06,57,1011.34
2023,01,04,06,58,1011.44
2023,01,04,06,59,1011.41
2023,01,04,07,00,1011.00
2023,01,04,07,01,1010.23
2023,01,04,07,02,1010.63
2023,01,04,07,03,1011.38
2023,01,04,07,04,1011.38
2023,01,04,07,05,1011.38
2023,01,04,07,06,1011.38
2023,01,04,07,07,1011.38
2023,01,04,07,08,1011.38
2023,01,04,07,09,1010.71
2023,01,04,07,10,1009.25
2023,01,04,07,11,1009.25
2023,01,04,07,12,1009.25
2023,01,04,07,13,1009.87
2023,01,04,07,14,1011.06
2023,01,04,07,15,1011.12
2023,01,04,07,16,1011.02
2023,01,04,07,17,1010.91
2023,01,04,07,18,1010.84
2023,01,04,07,19,1010.88
2023,01,04,07,20,1010.96
2023,01,04,07,21,1011.01
2023,01,04,07,22,1010.70
2023,01,04,07,23,1010.31
2023,01,04,07,24,1010.43
2023,01,04,07,25,1010.43
2023,01,04,07,26,1010.43
2023,01,04,07,27,1010.43
2023,01,04,07,28,1010.43
2023,01,04,07,29,1010.43
2023,01,04,07,30,1010.70
2023,01,04,07,31,1011.28
2023,01,04,07,32,1011.28
2023,01,04,07,33,1011.28
2023,01,04,07,34,1011.28
2023,01,04,07,35,1011.28
2023,01,04,07,36,1011.28
2023,01,04,07,37,1011.28
2023,01,04,07,38,1011.28
2023,01,04,07,39,1011.28
2023,01,04,07,40,1006.75
2023,01,04,07,41,996.68
2023,01,04,07,42,996.81
2023,01,04,07,43,997.09
2023,01,04,07,44,997.09
2023,01,04,07,45,997.09
2023,01,04,07,46,997.09
2023,01,04,07,47,996.36
2023,01,04,07,48,994.72
2023,01,04,07,49,994.65
2023,01,04,07,50,994.65
2023,01,04,07,51,994.65
2023,01,04,07,52,994.65
2023,01,04,07,53,994.65
2023,01,04,07,54,994.65
2023,01,04,07,55,994.65
2023,01,04,07,56,994.65
2023,01,04,07,57,994.65
2023,01,04,07,58,994.65
2023,01,04,07,59,994.65
2023,01,04,08,00,994.65
2023,01,04,08,01,994.65
2023,01,04,08,02,994.65
2023,01,04,08,03,994.65
2023,01,04,08,04,994.65
2023,01,04,08,05,996.85
2023,01,04,08,06,1000.95
2023,01,04,08,07,1000.95
2023,01,04,08,08,1000.95
2023,01,04,08,09,1000.95
2023,01,04,08,10,1000.95
2023,01,04,08,11,1000.95
2023,01,04,08,12,1000.95
2023,01,04,08,13,1000.95
2023,01,04,08,14,1000.95
2023,01,04,08,15,1000.95
2023,01,04,08,16,1000.95
2023,01,04,08,17,1000.95
2023,01,04,08,18,997.18
2023,01,04,08,19,990.18
2023,01,04,08,20,990.18
2023,01,04,08,21,990.18
2023,01,04,08,22,990.18
2023,01,04,08,23,990.18
2023,01,04,08,24,990.18
2023,01,04,08,25,990.18
2023,01,04,08,26,994.29
2023,01,04,08,27,1001.93
2023,01,04,08,28,1002.32
2023,01,04,08,29,1003.15
2023,01,04,08,30,1002.90
2023,01,04,08,31,1002.54
2023,01,04,08,32,1002.54
2023,01,04,08,33,1002.54
2023,01,04,08,34,1002.54
2023,01,04,08,35,1002.54
2023,01,04,08,36,998.88
2023,01,04,08,37,992.08
2023,01,04,08,38,992.08
2023,01,04,08,39,992.08
2023,01,04,08,40,992.08
2023,01,04,08,41,992.08
2023,01,04,08,42,992.08
2023,01,04,08,43,992.08
2023,01,04,08,44,992.08
2023,01,04,08,45,992.08
2023,01,04,08,46,989.95
2023,01,04,08,47,985.98
2023,01,04,08,48,985.98
2023,01,04,08,49,985.98
2023,01,04,08,50,985.98
2023,01,04,08,51,985.98
2023,01,04,08,52,985.98
2023,01,04,08,53,985.98
2023,01,04,08,54,985.98
2023,01,04,08,55,985.98
2023,01,04,08,56,985.98
2023,01,04,08,57,985.98
2023,01,04,08,58,985.98
2023,01,04,08,59,985.98
2023,01,04,09,00,987.87
2023,01,04,09,01,991.37
2023,01,04,09,02,991.37
2023,01,04,09,03,991.37
2023,01,04,09,04,992.30
2023,01,04,09,05,994.25
2023,01,04,09,06,994.65
2023,01,04,09,07,994.29
2023,01,04,09,08,993.63
2023,01,04,09,09,993.63
2023,01,04,09,10,993.63
2023,01,04,09,11,993.38
2023,01,04,09,12,992.92
2023,01,04,09,13,992.92
2023,01,04,09,14,992.92
2023,01,04,09,15,992.92
2023,01,04,09,16,992.92
2023,01,04,09,17,992.92
2023,01,04,09,18,992.92
2023,01,04,09,19,992.92
2023,01,04,09,20,992.92
2023,01,04,09,21,992.92
2023,01,04,09,22,992.92
2023,01,04,09,23,992.92
2023,01,04,09,24,992.92
2023,01,04,09,25,992.92
2023,01,04,09,26,992.92
2023,01,04,09,27,992.92
2023,01,04,09,28,992.92
2023,01,04,09,29,992.92
2023,01,04,09,30,992.92
2023,01,04,09,31,992.92
2023,01,04,09,32,992.92
2023,01,04,09,33,989.91
2023,01,04,09,34,984.32
2023,01,04,09,35,985.39
2023,01,04,09,36,988.08
2023,01,04,09,37,988.52
2023,01,04,09,38,987.29
2023,01,04,09,39,984.42
2023,01,04,09,40,984.42
2023,01,04,09,41,984.42
2023,01,04,09,42,984.42
2023,01,04,09,43,984.42
2023,01,04,09,44,984.42
2023,01,04,09,45,984.42
2023,01,04,09,46,984.42
2023,01,04,09,47,984.42
2023,01,04,09,48,984.42
2023,01,04,09,49,981.94
2023,01,04,09,50,976.16
2023,01,04,09,51,976.16
2023,01,04,09,52,976.16
2023,01,04,09,53,976.16
2023,01,04,09,54,976.16
2023,01,04,09,55,976.16
2023,01,04,09,56,976.16
2023,01,04,09,57,979.85
2023,01,04,09,58,986.69
2023,01,04,09,59,986.69
2023,01,04,10,00,986.69
2023,01,04,10,01,986.69
2023,01,04,10,02,986.69
2023,01,04,10,03,986.69
2023,01,04,10,04,986.69
2023,01,04,10,05,986.78
2023,01,04,10,06,987.00
2023,01,04,10,07,987.00
2023,01,04,10,08,987.00
2023,01,04,10,09,987.00
2023,01,04,10,10,987.00
2023,01,04,10,11,987.00
2023,01,04,10,12,987.00
2023,01,04,10,13,987.00
2023,01,04,10,14,986.69
2023,01,04,10,15,985.98
2023,01,04,10,16,985.98
2023,01,04,10,17,985.98
2023,01,04,10,18,985.98
2023,01,04,10,19,985.98
2023,01,04,10,20,985.98
2023,01,04,10,21,985.98
2023,01,04,10,22,985.98
2023,01,04,10,23,985.98
2023,01,04,10,24,985.98
2023,01,04,10,25,985.98
2023,01,04,10,26,985.98
2023,01,04,10,27,985.98
2023,01,04,10,28,985.98
2023,01,04,10,29,985.98
2023,01,04,10,30,985.98
2023,01,04,10,31,985.98
2023,01,04,10,32,985.98
2023,01,04,10,33,985.98
2023,01,04,10,34,985.98
2023,01,04,10,35,985.98
2023,01,04,10,36,985.98
2023,01,04,10,37,985.98
2023,01,04,10,38,985.98
2023,01,04,10,39,985.98
2023,01,04,10,40,985.98
2023,01,04,10,41,985.98
2023,01,04,10,42,985.98
2023,01,04,10,43,985.98
2023,01,04,10,44,985.98
2023,01,04,10,45,985.98
2023,01,04,10,46,985.98
2023,01,04,10,47,985.98
2023,01,04,10,48,985.98
2023,01,04,10,49,985.98
2023,01,04,10,50,985.98
2023,01,04,10,51,985.98
2023,01,04,10,52,985.98
2023,01,04,10,53,980.48
2023,01,04,10,54,967.56
2023,01,04,10,55,967.32
2023,01,04,10,56,967.32
2023,01,04,10,57,967.32
2023,01,04,10,58,967.32
2023,01,04,10,59,964.80
2023,01,04,11,00,957.17
2023,01,04,11,01,956.96
2023,01,04,11,02,956.96
2023,01,04,11,03,956.96
2023,01,04,11,04,956.96
2023,01,04,11,05,956.96
2023,01,04,11,06,956.96
2023,01,04,11,07,956.96
2023,01,04,11,08,956.96
2023,01,04,11,09,956.96
2023,01,04,11,10,956.96
2023,01,04,11,11,956.96
2023,01,04,11,12,956.96
2023,01,04,11,13,956.96
2023,01,04,11,14,956.96
2023,01,04,11,15,956.96
2023,01,04,11,16,956.96
2023,01,04,11,17,949.30
2023,01,04,11,18,931.43
2023,01,04,11,19,931.43
2023,01,04,11,20,931.43
2023,01,04,11,21,931.43
2023,01,04,11,22,931.43
2023,01,04,11,23,931.43
2023,01,04,11,24,931.43
2023,01,04,11,25,931.43
2023,01,04,11,26,931.43
2023,01,04,11,27,931.43
2023,01,04,11,28,931.43
2023,01,04,11,29,931.43
2023,01,04,11,30,931.43
2023,01,04,11,31,931.43
2023,01,04,11,32,931.43
2023,01,04,11,33,931.43
2023,01,04,11,34,931.43
2023,01,04,11,35,931.43
2023,01,04,11,36,931.43
2023,01,04,11,37,931.43
2023,01,04,11,38,931.43
2023,01,04,11,39,931.43
2023,01,04,11,40,931.43
2023,01,04,11,41,931.43
2023,01,04,11,42,931.43
2023,01,04,11,43,931.43
2023,01,04,11,44,931.43
2023,01,04,11,45,931.43
2023,01,04,11,46,931.43
2023,01,04,11,47,931.43
2023,01,04,11,48,931.43
2023,01,04,11,49,931.43
2023,01,04,11,50,931.43
2023,01,04,11,51,934.45
2023,01,04,11,52,941.48
2023,01,04,11,53,941.48
2023,01,04,11,54,941.48
2023,01,04,11,55,941.48
2023,01,04,11,56,941.48
2023,01,04,11,57,941.48
2023,01,04,11,58,941.48
2023,01,04,11,59,941.48
2023,01,04,12,00,941.48
2023,01,04,12,01,932.06
2023,01,04,12,02,910.09
2023,01,04,12,03,910.09
2023,01,04,12,04,910.09
2023,01,04,12,05,910.09
2023,01,04,12,06,910.09
2023,01,04,12,07,910.09
2023,01,04,12,08,910.09
2023,01,04,12,09,910.09
2023,01,04,12,10,910.09
2023,01,04,12,11,910.09
2023,01,04,12,12,910.09
2023,01,04,12,13,910.09
2023,01,04,12,14,910.09
2023,01,04,12,15,910.09
2023,01,04,12,16,910.09
2023,01,04,12,17,908.59
2023,01,04,12,18,905.08
2023,01,04,12,19,905.08
2023,01,04,12,20,905.08
2023,01,04,12,21,905.08
2023,01,04,12,22,905.08
2023,01,04,12,23,905.08
2023,01,04,12,24,905.08
2023,01,04,12,25,905.08
2023,01,04,12,26,905.08
2023,01,04,12,27,905.08
2023,01,04,12,28,905.08
2023,01,04,12,29,905.08
2023,01,04,12,30,905.08
2023,01,04,12,31,905.08
2023,01,04,12,32,905.08
2023,01,04,12,33,905.08
2023,01,04,12,34,905.08
2023,01,04,12,35,905.08
2023,01,04,12,36,905.08
2023,01,04,12,37,905.08
2023,01,04,12,38,905.08
2023,01,04,12,39,905.08
2023,01,04,12,40,905.08
2023,01,04,12,41,905.08
2023,01,04,12,42,905.08
2023,01,04,12,43,905.08
2023,01,04,12,44,905.08
2023,01,04,12,45,905.08
2023,01,04,12,46,905.08
2023,01,04,12,47,905.08
2023,01,04,12,48,905.08
2023,01,04,12,49,905.08
2023,01,04,12,50,905.08
2023,01,04,12,51,905.08
2023,01,04,12,52,905.08
2023,01,04,12,53,905.08
2023,01,04,12,54,905.08
2023,01,04,12,55,905.08
2023,01,04,12,56,905.08
2023,01,04,12,57,905.08
2023,01,04,12,58,905.08
2023,01,04,12,59,905.08
2023,01,04,13,00,905.08
2023,01,04,13,01,905.08
2023,01,04,13,02,905.08
2023,01,04,13,03,905.08
2023,01,04,13,04,905.08
2023,01,04,13,05,905.08
2023,01,04,13,06,905.08
2023,01,04,13,07,905.08
2023,01,04,13,08,905.08
2023,01,04,13,09,905.08
2023,01,04,13,10,905.08
2023,01,04,13,11,905.08
2023,01,04,13,12,905.08
2023,01,04,13,13,905.08
2023,01,04,13,14,905.08
2023,01,04,13,15,909.86
2023,01,04,13,16,921.00
2023,01,04,13,17,921.00
2023,01,04,13,18,918.03
2023,01,04,13,19,911.11
2023,01,04,13,20,911.11
2023,01,04,13,21,911.11
2023,01,04,13,22,911.11
2023,01,04,13,23,911.11
2023,01,04,13,24,911.11
2023,01,04,13,25,911.11
2023,01,04,13,26,911.11
2023,01,04,13,27,911.11
2023,01,04,13,28,911.11
2023,01,04,13,29,911.11
2023,01,04,13,30,911.11
2023,01,04,13,31,911.11
2023,01,04,13,32,911.11
2023,01,04,13,33,911.11
2023,01,04,13,34,911.11
2023,01,04,13,35,911.11
2023,01,04,13,36,911.11
2023,01,04,13,37,911.11
2023,01,04,13,38,911.11
2023,01,04,13,39,911.11
2023,01,04,13,40,911.11
2023,01,04,13,41,911.11
2023,01,04,13,42,911.11
2023,01,04,13,43,911.11
2023,01,04,13,44,911.11
2023,01,04,13,45,911.11
2023,01,04,13,46,911.11
2023,01,04,13,47,911.11
2023,01,04,13,48,911.11
2023,01,04,13,49,911.11
2023,01,04,13,50,911.11
2023,01,04,13,51,909.02
2023,01,04,13,52,902.74
2023,01,04,13,53,902.74
2023,01,04,13,54,902.74
2023,01,04,13,55,902.74
2023,01,04,13,56,902.74
2023,01,04,13,57,902.74
2023,01,04,13,58,902.74
2023,01,04,13,59,902.74
2023,01,04,14,00,902.74
2023,01,04,14,01,902.74
2023,01,04,14,02,902.74
2023,01,04,14,03,902.74
2023,01,04,14,04,902.74
2023,01,04,14,05,902.74
2023,01,04,14,06,902.74
2023,01,04,14,07,902.74
2023,01,04,14,08,902.74
2023,01,04,14,09,902.74
2023,01,04,14,10,902.74
2023,01,04,14,11,902.74
2023,01,04,14,12,902.74
2023,01,04,14,13,902.74
2023,01,04,14,14,902.74
2023,01,04,14,15,902.74
2023,01,04,14,16,902.74
2023,01,04,14,17,902.74
2023,01,04,14,18,902.74
2023,01,04,14,19,902.74
2023,01,04,14,20,902.74
2023,01,04,14,21,902.74
2023,01,04,14,22,902.74
2023,01,04,14,23,902.74
2023,01,04,14,24,911.20
2023,01,04,14,25,930.95
2023,01,04,14,26,930.95
2023,01,04,14,27,930.95
2023,01,04,14,28,930.95
2023,01,04,14,29,930.95
2023,01,04,14,30,930.95
2023,01,04,14,31,930.95
2023,01,04,14,32,930.95
2023,01,04,14,33,930.95
2023,01,04,14,34,930.95
2023,01,04,14,35,930.95
2023,01,04,14,36,930.95
2023,01,04,14,37,930.95
2023,01,04,14,38,930.95
2023,01,04,14,39,930.95
2023,01,04,14,40,930.95
2023,01,04,14,41,930.95
2023,01,04,14,42,930.95
2023,01,04,14,43,930.95
2023,01,04,14,44,930.95
2023,01,04,14,45,930.95
2023,01,04,14,46,930.95
2023,01,04,14,47,930.95
2023,01,04,14,48,930.95
2023,01,04,14,49,930.95
2023,01,04,14,50,930.95
2023,01,04,14,51,926.54
2023,01,04,14,52,914.19
2023,01,04,14,53,914.19
2023,01,04,14,54,914.19
2023,01,04,14,55,914.19
2023,01,04,14,56,914.19
2023,01,04,14,57,914.19
2023,01,04,14,58,914.19
2023,01,04,14,59,914.19
2023,01,04,15,00,914.19
2023,01,04,15,01,914.19
2023,01,04,15,02,914.19
2023,01,04,15,03,914.19
2023,01,04,15,04,914.19
2023,01,04,15,05,914.19
2023,01,04,15,06,914.19
2023,01,04,15,07,914.19
2023,01,04,15,08,914.19
2023,01,04,15,09,914.19
2023,01,04,15,10,914.19
2023,01,04,15,11,914.19
2023,01,04,15,12,914.19
2023,01,04,15,13,914.19
2023,01,04,15,14,914.19
2023,01,04,15,15,914.19
2023,01,04,15,16,914.19
2023,01,04,15,17,914.19
2023,01,04,15,18,914.19
2023,01,04,15,19,914.19
2023,01,04,15,20,914.19
2023,01,04,15,21,914.19
2023,01,04,15,22,914.19
2023,01,04,15,23,914.19
2023,01,04,15,24,914.19
2023,01,04,15,25,914.19
2023,01,04,15,26,920.04
2023,01,04,15,27,936.44
2023,01,04,15,28,936.44
2023,01,04,15,29,936.44
2023,01,04,15,30,936.44
2023,01,04,15,31,936.44
2023,01,04,15,32,936.44
2023,01,04,15,33,936.44
2023,01,04,15,34,936.44
2023,01,04,15,35,936.44
2023,01,04,15,36,936.44
2023,01,04,15,37,936.44
2023,01,04,15,38,936.44
2023,01,04,15,39,936.44
2023,01,04,15,40,936.44
2023,01,04,15,41,936.44
2023,01,04,15,42,936.44
2023,01,04,15,43,936.44
2023,01,04,15,44,936.44
2023,01,04,15,45,935.99
2023,01,04,15,46,934.60
2023,01,04,15,47,934.47
2023,01,04,15,48,934.47
2023,01,04,15,49,934.47
2023,01,04,15,50,934.47
2023,01,04,15,51,934.47
2023,01,04,15,52,934.47
2023,01,04,15,53,934.47
2023,01,04,15,54,934.47
2023,01,04,15,55,934.47
2023,01,04,15,56,933.66
2023,01,04,15,57,931.22
2023,01,04,15,58,931.22
2023,01,04,15,59,931.22
2023,01,04,16,00,931.22
2023,01,04,16,01,931.22
2023,01,04,16,02,931.22
2023,01,04,16,03,931.22
2023,01,04,16,04,931.22
2023,01,04,16,05,931.22
2023,01,04,16,06,931.22
2023,01,04,16,07,931.22
2023,01,04,16,08,931.22
2023,01,04,16,09,931.22
2023,01,04,16,10,931.22
2023,01,04,16,11,931.22
2023,01,04,16,12,931.22
2023,01,04,16,13,931.22
2023,01,04,16,14,931.22
2023,01,04,16,15,931.22
2023,01,04,16,16,931.22
2023,01,04,16,17,931.22
2023,01,04,16,18,931.22
2023,01,04,16,19,931.22
2023,01,04,16,20,931.22
2023,01,04,16,21,931.22
2023,01,04,16,22,931.22
2023,01,04,16,23,931.22